Regional Weather Roundup
Issued by NWS

Home | Current Version | Previous Version | Text Only | Print | Product List | Glossary Off
Versions: 1 2 3 4 5 6 7 8 9 10 11 12 13 14 15 16 17 18 19 20 21 22 23 24 25 26 27 28 29 30 31 32 33 34 35 36 37 38 39 40 41 42 43 44 45 46 47 48 49 50

000
ASUS43 KMPX 240210
RWRMN
WEATHER ROUNDUP FOR MINNESOTA
NATIONAL WEATHER SERVICE TWIN CITIES/CHANHASSEN MN
900 PM CDT FRI SEP 23 2016


NOTE: "FAIR" INDICATES FEW OR NO CLOUDS BELOW 12,000 FEET WITH NO
SIGNIFICANT WEATHER AND/OR OBSTRUCTIONS TO VISIBILITY. N/A MEANS
CURRENT SKY AND/OR WEATHER CONDITIONS ARE NOT AVAILABLE.

MNZ060>063-068>070-240300-
   Twin Cities Metro

CITY           SKY/WX    TMP DP  RH WIND       PRES   REMARKS
TWIN CITIES    MOCLDY    64  60  87 SE13      30.08S
ST PAUL        CLOUDY    64  61  90 SE8       30.09R
CRYSTAL        CLOUDY    64  59  83 E7        30.07S
BLAINE         CLOUDY    64  64 100 E6        30.08S
LAKEVILLE      CLOUDY    63  63 100 E9        30.07F
EDEN PRAIRIE   CLOUDY    65  60  84 E10       30.06S
LAKEVILLE      CLOUDY    63  63 100 E9        30.07F
SOUTH ST PAUL  CLOUDY    64  62  94 SE6       30.08F
LAKE ELMO      CLOUDY    63  63 100 NE3       30.11R
$$
MNZ001>005-007-008-013>017-022>024-027-028-240300-
   Northwest Minnesota

CITY           SKY/WX    TMP DP  RH WIND       PRES   REMARKS
BEMIDJI        LGT RAIN  56  51  84 E10       30.10R
HALLOCK        DRIZZLE   61  52  72 E12       30.02S
ROSEAU         CLOUDY    59  46  63 E12       30.08S
WARROAD        CLOUDY    59  48  67 E13G18    30.10F
THIEF RVR FALL LGT RAIN  57  53  86 E15G23    30.04F
CROOKSTON      RAIN      55  55 100 SE12      30.02R
FOSSTON        LGT RAIN  55  52  88 SE9G17    30.05S
DETROIT LAKES  CLOUDY    59  54  82 SE16G22   30.04F
MOORHEAD       CLOUDY    61  57  88 SE15G21   29.98F
PARK RAPIDS    CLOUDY    59  52  77 E7        30.09R
MAHNOMEN       FAIR      59  53  82 SE14G21   30.03F
$$
MNZ006-009>011-018-025>026-240300-
   North Central Minnesota

CITY           SKY/WX    TMP DP  RH WIND       PRES   REMARKS
BAUDETTE       CLOUDY    59  45  59 E13       30.11F
FLAG ISLAND    CLOUDY    61  45  55 E3        30.11S
INTL FALLS     CLOUDY    58  45  62 SE8       30.16F
WASKISH        CLOUDY    61  50  67 E13G18    30.10F
BIG FORK       CLOUDY    59  46  63 E8        30.14S
GRAND RAPIDS   CLOUDY    57  47  69 SE10G17   30.14F
CRANE LAKE     CLOUDY    55  46  71 CALM      30.21S
ORR            CLOUDY    57  43  58 E6        30.15F
COOK           CLOUDY    55  46  71 E3        30.18F
WALKER         CLOUDY    58  50  75 E12G21    30.10R
$$
MNZ012-019>021-037-240300-
   Northeast Minnesota

CITY           SKY/WX    TMP DP  RH WIND       PRES   REMARKS
DULUTH         CLOUDY    57  55  93 E18       30.18F
ELY            CLOUDY    55  43  62 E6        30.21S
HIBBING        CLOUDY    54  46  74 E10       30.17F
EVELETH        PTCLDY    55  44  67 E7        30.19F
DULUTH HARBOR  CLOUDY    59  55  88 NE18      30.19F
TWO HARBORS    CLOUDY    59  54  82 E12       30.20S
SILVER BAY     CLOUDY    55  54  94 NE9       30.21F
GRAND MARAIS     N/A     57  51  80 NE9       30.25R
G MARAIS ARPRT CLOUDY    48  45  87 NE8       30.27R
$$
MNZ029>031-032-039>041-046>048-054>057-064-240300-
   West Central Minnesota

CITY           SKY/WX    TMP DP  RH WIND       PRES   REMARKS
FERGUS FALLS   CLOUDY    63  61  94 SE14G20   30.02R
MORRIS         CLOUDY    63  63 100 SE17      29.98S
ALEXANDRIA     CLOUDY    62  61  96 SE16G26   30.04R
ELBOW LAKE     CLOUDY    62  61  96 SE15      30.01R
GLENWOOD       CLOUDY    63  61  94 E16G22    30.03S
BENSON         CLOUDY    64  61  88 SE10G18   30.01R
ORTONVILLE     CLOUDY    64  61  88 SE14G20   29.97R
MADISON          N/A     68  66  94 SE14      29.97S
WILLMAR        CLOUDY    63  63 100 SE16G23   30.04R
$$
MNZ033>034-036-042>043-049>051-058-059-240300-
   Central Minnesota

CITY           SKY/WX    TMP DP  RH WIND       PRES   REMARKS
ST CLOUD       CLOUDY    61  61 100 E7        30.06F
SAUK CENTRE    CLOUDY    61  59  93 E14       30.05R
PAYNESVILLE    CLOUDY    62  62 100 SE14      30.05S
AITKIN         MIX PCPN  59  50  72 E6        30.10R
PINE RIVER     MOCLDY    57  52  82 E15       30.12R
BRAINERD       CLOUDY    59  53  80 VRB7      30.09R
STAPLES        CLOUDY    57  55  94 E7        30.08R
LONG PRAIRIE   CLOUDY    59  57  94 E9        30.06S
LITTLE FALLS   CLOUDY    59  55  88 E6        30.07R
LITCHFIELD     MOCLDY    63  63 100 E13       30.05S
BUFFALO        CLOUDY    62  59  90 E8        30.08S
MAPLE LAKE     CLOUDY    63  62  96 SE7       30.07S
HUTCHINSON     CLOUDY    63  62  97 E12G17    30.05F
$$
MNZ037-044-045-052-053-240300-
   East Central Minnesota

CITY           SKY/WX    TMP DP  RH WIND       PRES   REMARKS
PRINCETON        N/A     63  61  94 E6        30.08F
MORA           CLOUDY    55  54  94 E3        30.12R
CAMBRIDGE      PTCLDY    63  57  82 CALM      30.08S
MOOSE LAKE     CLOUDY    55  52  88 E8        30.11F
HINCKLEY       DRIZZLE   59  55  88 E8        30.12S
CLOQUET        CLOUDY    57  52  82 E12G23    30.16F
MCGREGOR       CLOUDY    55  52  88 E13G20    30.12F
$$
MNZ071>073-080-081-089-090-097-098-240300-
   Southwest Minnesota

CITY           SKY/WX    TMP DP  RH WIND       PRES   REMARKS
MONTEVIDEO     CLOUDY    64  64 100 SE15      30.01S
GRANITE FALLS  CLOUDY    67  64  89 E10       30.01S
CANBY          CLOUDY    68  65  89 E16G22    29.97F
MARSHALL       CLOUDY    68  65  90 SE18G24   29.98R
REDWOOD FALLS  CLOUDY    66  62  87 SE15      30.01R
OLIVIA         CLOUDY    63  61  94 SE10      30.01S
PIPESTONE      CLOUDY    70  66  88 SE15G21   29.96R
WINDOM         CLOUDY    70  64  83 E14G20    30.00S
WORTHINGTON    CLOUDY    69  67  93 E18       29.98R
JACKSON        CLOUDY    70  64  83 SE20G25   30.01S
TRACY          CLOUDY    68  66  93 SE10G18   29.99S
SLAYTON        CLOUDY    66  64  94 E14G23    30.00R
$$
MNZ065>067-074>077-082>085-091>093-240300-
   South Central Minnesota

CITY           SKY/WX    TMP DP  RH WIND       PRES   REMARKS
MANKATO        CLOUDY    66  63  90 SE14      30.05R
NEW ULM        CLOUDY    66  64  94 SE10      30.02S
ST JAMES       CLOUDY    64  63  94 E13       30.03S
FAIRMONT       CLOUDY    68  65  90 SE14G20   30.03S
GLENCOE        CLOUDY    62  62 100 E10       30.05S
FARIBAULT      CLOUDY    64  61  88 E10G18    30.08S
OWATONNA       CLOUDY    64  61  88 E12G18    30.08S
WASECA         MOCLDY    63  59  88 E9        30.08R
ALBERT LEA     CLOUDY    66  64  94 SE14      30.07S
$$
MNZ078>079-086>088-094>096-240300-
   Southeast Minnesota

CITY           SKY/WX    TMP DP  RH WIND       PRES   REMARKS
ROCHESTER      CLOUDY    63  61  93 E13       30.12S
RED WING       CLOUDY    66  61  82 SE15      30.08F
DODGE CENTER   CLOUDY    63  61  94 E10G18    30.10F
WINONA         CLOUDY    66  61  82 SE8       30.14S
AUSTIN         CLOUDY    64  61  88 E12       30.09R
PRESTON        CLOUDY    63  59  87 E8        30.13F
$$
ABBREVIATIONS USED IN REMARKS
   TC - TEMPERATURES IN CELSIUS
  WCI - WIND CHILL INDEX
   HX - HEAT INDEX
  VSB - VISIBILITY
$$




USA.gov is the U.S. government's official web portal to all federal, state and local government web resources and services.